Regional Weather Roundup
Issued by NWS Northern Indiana

Home | Current Version | Previous Version | Graphics & Text | Print | Product List | Glossary On
Versions: 1 2 3 4 5 6 7 8 9 10 11 12 13 14 15 16 17 18 19 20 21 22 23 24 25 26 27 28 29 30 31 32 33 34 35 36 37 38 39 40 41 42 43 44 45 46 47 48 49 50
000
ASUS43 KIWX 311700
RWRIWX

KIWX WEATHER ROUNDUP
NATIONAL WEATHER SERVICE NORTHERN INDIANA
100 PM EDT TUE MAY 31 2016

NOTE: "FAIR" INDICATES FEW OR NO CLOUDS BELOW 12,000 FEET WITH NO
SIGNIFICANT WEATHER AND/OR OBSTRUCTIONS TO VISIBILITY.

* THESE STATIONS ARE NOT UNDER NWS QUALITY CONTROL. THEY ALSO MAY NOT
  REPORT WEATHER SUCH AS PRECIPITATION OR FOG.

INZ001>027-311800-
NORTHERN INDIANA

CITY           SKY/WX    TMP DP  RH WIND       PRES   REMARKS
GARY*          PTSUNNY   79  66  65 E13       30.00R
SOUTH BEND     CLOUDY    79  55  43 MISG        N/A
ELKHART*       PTSUNNY   81  57  44 SE10      30.02S
GOSHEN         PTSUNNY   82  52  35 SE9       30.02S
ANGOLA*          N/A     81  46  30 SE6       30.03S
FORT WAYNE     PTSUNNY   82  54  37 E9        30.02F

$$
INZ028>050-311800-
CENTRAL INDIANA

CITY           SKY/WX    TMP DP  RH WIND       PRES   REMARKS
LAFAYETTE      SUNNY     84  58  40 S6        29.97F
KOKOMO*        MOSUNNY   84  57  39 SE12      29.99S
MUNCIE*        MOSUNNY   86  55  34 SE3       30.00F
INDIANAPOLIS   PTSUNNY   84  57  39 S9        29.99S

$$
MIZ043>046-050>051-056>058-064>065-071>073-077>080-311800-
SOUTHWEST LOWER MICHIGAN

CITY           SKY/WX    TMP DP  RH WIND       PRES   REMARKS
BATTLE CREEK   MOSUNNY   78  46  32 SE10G16   30.05S
BENTON HARBOR  PTSUNNY   80  49  33 SE13      30.01S
COLDWATER*     PTSUNNY   77  47  34 E6        30.04S
HILLSDALE*     MOSUNNY   80  33  18 NE9       30.05S
HOLLAND        SUNNY     83  49  30 SE13G20   30.03S
GRAND RAPIDS   PTSUNNY   82  48  30 SE9       30.04F
KALAMAZOO      PTSUNNY   80  45  28 VRB6      30.04S
STURGIS*       MOSUNNY   81  46  29 E8        30.03R
THREE RIVERS*  FAIR      82  46  28 SE10      30.03F

$$
OHZ001>008-015>018-024>025-311800-
NORTHWEST OHIO

CITY           SKY/WX    TMP DP  RH WIND       PRES   REMARKS
DEFIANCE       MOSUNNY   83  50  31 NE7       30.03F
FINDLAY        CLOUDY    82  51  34 NE8       30.02S
TOLEDO EXPRESS CLOUDY    81  54  39 NE9       30.03S
TOLEDO METCALF CLOUDY    81  55  40 E10       30.04F
LIMA           PTSUNNY   82  52  35 NE7       30.02F

$$
AND FOR LAKE MICHIGAN COASTAL AND OPEN LAKE BUOY OBSERVATIONS

STATION/POSITION TEMP    WIND        PRES    VSBY  WAVE
                 AIR SEA DIR/SP/G                  HT/PER
                 (F)     (DEG/KT/KT) (MB)    (MI)  (FT/S)
CALUMET HARBOR    67      40/  6/  9 1015.2F
MICHIGAN CITY     72      10/  9/ 10   N/A
BURNS HARBOR      67      40/  8/ 15 1016.3S
SAINT JOSEPH      80      50/  2/  8 1016.6S
SOUTH LAKE BUOY   56 54   80/  8/  8 1016.1          0
4 MI NW BRIDGMAN  72 65   90/  6/  8   N/A           1
MICHIGAN CITY     66 62   40/  8/ 10   N/A           0

$$
&&




USA.gov is the U.S. government's official web portal to all federal, state and local government web resources and services.